Change the Weather History Date:

Wednesday, October 22, 2014

  Actual Average Record
Temperature  
Mean Temperature 55 °F 56 °F  
Max Temperature 59 °F 63 °F 83 °F (1979)
Min Temperature 51 °F 49 °F 33 °F (1940)
Degree Days  
Heating Degree Days 10 9  
Month to date heating degree days 93 140  
Since 1 July heating degree days 106 175  
Cooling Degree Days 0 0  
Month to date cooling degree days 24 20  
Year to date cooling degree days 1192 1210  
Growing Degree Days 5 (Base 50)    
Moisture  
Dew Point 51 °F    
Average Humidity 78    
Maximum Humidity 89    
Minimum Humidity 67    
Precipitation  
Precipitation 1.26 in 0.13 in 2.15 in (1958)
Month to date precipitation 3.53 2.73  
Year to date precipitation 39.83 36.71  
Snow  
Snow 0.00 in 0.00 in - ()
Month to date snowfall 0.0 0.0  
Since 1 July snowfall 0.0 0.0  
Snow Depth 0.00 in    
Sea Level Pressure  
Sea Level Pressure 29.86 in    
Wind  
Wind Speed 16 mph (NNE)    
Max Wind Speed 28 mph    
Max Gust Speed 41 mph    
Visibility 9 miles    
Events Rain , Thunderstorm    
T = Trace of Precipitation, MM = Missing Value Source: NWS Daily Summary

Daily Weather History Graph

Daily Weather History Graph

Search for Another Location

Airport or City:

Trip Planner

Search our weather history database for the weather conditions in past years. The results will help you decide how hot, cold, wet, or windy it might be!

Date:

Astronomy

Oct. 22, 2014 Rise Set
Actual Time 7:14 AM EDT 6:04 PM EDT
Civil Twilight 6:46 AM EDT 6:32 PM EDT
Nautical Twilight 6:14 AM EDT 7:04 PM EDT
Astronomical Twilight 5:42 AM EDT 7:36 PM EDT
Moon 5:52 AM EDT (10/22) 5:30 PM EDT (10/22)
Length of Visible Light 11h 46m
Length of Day
10h 50m
Waning Crescent, 2% of the Moon is Illuminated
Oct 22
Waning Crescent
Oct 23
New
Oct 30
First Quarter
Nov 6
Full
Nov 14
Last Quarter

Hourly Weather History & Observations

Time (EDT) Temp. Dew Point Humidity Pressure Visibility Wind Dir Wind Speed Gust Speed Precip Events Conditions
12:46 AM 57.2 °F 51.8 °F 82% 29.90 in 10.0 mi NE 8.1 mph - N/A   Mostly Cloudy
12:51 AM 57.0 °F 52.0 °F 83% 29.90 in 10.0 mi NE 8.1 mph - N/A   Mostly Cloudy
1:39 AM 59.0 °F 53.6 °F 82% 29.89 in 10.0 mi NE 11.5 mph - N/A   Mostly Cloudy
1:51 AM 59.0 °F 54.0 °F 83% 29.89 in 10.0 mi NE 12.7 mph - N/A   Overcast
2:51 AM 59.0 °F 55.0 °F 87% 29.87 in 10.0 mi ENE 23.0 mph 26.5 mph 0.00 in Rain Light Rain
3:47 AM 57.2 °F 55.4 °F 94% 29.88 in 10.0 mi ENE 17.3 mph - 0.01 in Rain , Thunderstorm Light Thunderstorms and Rain
3:51 AM 57.0 °F 55.0 °F 93% 29.88 in 10.0 mi ENE 16.1 mph - 0.02 in Rain , Thunderstorm Light Thunderstorms and Rain
4:20 AM 57.2 °F 55.4 °F 94% 29.88 in 6.0 mi ENE 12.7 mph - 0.07 in Rain Rain
4:51 AM 57.0 °F 55.0 °F 93% 29.88 in 8.0 mi NE 12.7 mph - 0.09 in Rain Light Rain
5:13 AM 55.4 °F 53.6 °F 94% 29.89 in 6.0 mi NNE 9.2 mph - 0.06 in Rain Rain
5:21 AM 55.4 °F 53.6 °F 94% 29.89 in 9.0 mi NNE 11.5 mph - 0.08 in Rain Rain
5:47 AM 55.4 °F 51.8 °F 88% 29.89 in 10.0 mi North 10.4 mph - 0.13 in Rain Light Rain
5:51 AM 55.9 °F 52.0 °F 87% 29.90 in 10.0 mi North 10.4 mph - 0.13 in Rain Light Rain
5:58 AM 55.4 °F 51.8 °F 88% 29.89 in 10.0 mi North 12.7 mph - 0.02 in Rain , Thunderstorm Light Thunderstorms and Rain
6:28 AM 55.4 °F 51.8 °F 88% 29.90 in 10.0 mi North 11.5 mph - 0.05 in Rain Light Rain
6:51 AM 55.9 °F 52.0 °F 87% 29.91 in 10.0 mi NNE 11.5 mph - 0.07 in Rain Light Rain
7:51 AM 55.0 °F 52.0 °F 89% 29.92 in 10.0 mi NNE 16.1 mph - 0.04 in Rain Light Rain
8:51 AM 55.0 °F 52.0 °F 89% 29.93 in 7.0 mi NNE 11.5 mph - 0.09 in Rain Light Rain
9:51 AM 55.0 °F 51.1 °F 86% 29.93 in 10.0 mi NNE 15.0 mph 23.0 mph 0.05 in Rain Light Rain
10:51 AM 57.0 °F 50.0 °F 77% 29.92 in 10.0 mi NE 13.8 mph - 0.00 in Rain Light Rain
11:51 AM 55.9 °F 51.1 °F 84% 29.92 in 10.0 mi NNE 15.0 mph - 0.00 in Rain Light Rain
12:51 PM 57.0 °F 50.0 °F 77% 29.88 in 10.0 mi NNE 18.4 mph 23.0 mph 0.00 in   Overcast
1:51 PM 57.9 °F 48.9 °F 72% 29.86 in 10.0 mi NNE 20.7 mph 26.5 mph N/A   Overcast
2:51 PM 57.0 °F 48.0 °F 72% 29.85 in 10.0 mi NNE 16.1 mph 28.8 mph N/A   Overcast
3:51 PM 57.0 °F 46.9 °F 69% 29.83 in 10.0 mi NNE 15.0 mph 23.0 mph N/A   Overcast
4:51 PM 54.0 °F 48.9 °F 83% 29.83 in 1.5 mi North 13.8 mph - 0.02 in Rain Rain
5:51 PM 53.1 °F 50.0 °F 89% 29.82 in 6.0 mi North 13.8 mph - 0.09 in Rain Rain
6:51 PM 53.1 °F 50.0 °F 89% 29.81 in 5.0 mi North 13.8 mph - 0.13 in Rain Heavy Rain
7:01 PM 53.6 °F 50.0 °F 88% 29.81 in 5.0 mi North 10.4 mph 21.9 mph 0.03 in Rain Heavy Rain
7:51 PM 53.1 °F 48.9 °F 86% 29.78 in 10.0 mi North 17.3 mph 26.5 mph 0.11 in Rain Light Rain
8:51 PM 53.1 °F 48.9 °F 86% 29.76 in 9.0 mi North 18.4 mph 31.1 mph 0.09 in Rain Rain
9:51 PM 52.0 °F 48.0 °F 86% 29.74 in 10.0 mi North 19.6 mph 31.1 mph 0.08 in Rain Light Rain
10:51 PM 51.1 °F 46.9 °F 86% 29.74 in 4.0 mi North 21.9 mph 33.4 mph 0.14 in Rain Heavy Rain
11:41 PM 51.8 °F 46.4 °F 82% 29.72 in 10.0 mi North 23.0 mph 34.5 mph 0.11 in   Overcast
11:51 PM 52.0 °F 46.9 °F 83% 29.73 in 10.0 mi North 16.1 mph 28.8 mph 0.11 in   Overcast